Location: Seattle
(47.6064°N, 122.3308°W)
Time: 03:26:05
(UTC-08:00)

N. Korean satellite - Pass Details

Date: 01 November 2020
Orbit: 453 x 503 km, 97.2° (Epoch: 03 December)

Event Time Altitude Azimuth Distance (km) Brightness Sun altitude
Rises 04:37:49 0° 32° (NNE) 2,477 10.7 -23.4°
Reaches altitude 10° 04:40:53 10° 64° (ENE) 1,597 10.1 -22.9°
Maximum altitude 04:42:24 12° 90° (E) 1,450 10.0 -22.6°
Drops below altitude 10° 04:43:55 10° 117° (ESE) 1,593 10.0 -22.4°
Sets 04:46:59 0° 148° (SSE) 2,465 10.6 -21.9°
